FW9150 Weather Reports


time (UTC)temp
F
wind
direction
speed
knots
gust
knots
rain 1hr
in
rain 24hr
in
rain mn
in
humidity
%
barometer
mb
20260831104616 56 157 0.0 0.0 0.00 0.00 0.00 51 1020.7
20260831103615 55 157 0.0 0.0 0.00 0.00 0.00 52 1020.7
20260831102615 55 157 0.0 0.0 0.00 0.00 0.00 54 1020.5
20260831100714 55 157 0.0 0.0 0.00 0.00 0.00 55 1020.9
20260831095715 55 157 0.0 0.0 0.00 0.00 0.00 55 1020.7
20260831094715 54 157 0.0 0.0 0.00 0.00 0.00 56 1020.7
20260831093714 54 157 0.0 0.0 0.00 0.00 0.00 57 1020.6
20260831092714 55 157 0.0 0.0 0.00 0.00 0.00 57 1020.8
20260831091814 55 157 0.0 0.0 0.00 0.00 0.00 56 1020.8
20260831090813 55 157 0.0 0.0 0.00 0.00 0.00 55 1020.8
20260831085814 55 157 0.0 0.0 0.00 0.00 0.00 56 1020.9
20260831084814 55 157 0.0 0.0 0.00 0.00 0.00 57 1020.9
20260831083912 55 157 0.0 0.0 0.00 0.00 0.00 58 1021.0
20260831082917 55 157 0.0 0.0 0.00 0.00 0.00 57 1021.0
20260831081917 56 157 0.0 0.0 0.00 0.00 0.00 58 1021.1
20260831081014 55 157 0.0 0.0 0.00 0.00 0.00 57 1021.3
20260831080016 55 157 0.0 0.0 0.00 0.00 0.00 58 1021.3
20260831075114 55 157 0.0 0.0 0.00 0.00 0.00 60 1021.2
20260831074115 55 157 0.0 0.0 0.00 0.00 0.00 61 1021.2
20260831073115 55 157 0.0 0.0 0.00 0.00 0.00 61 1021.2
20260831072115 55 157 0.0 0.0 0.00 0.00 0.00 61 1021.2
20260831070216 56 157 0.0 0.0 0.00 0.00 0.00 62 1021.2
20260831065306 55 157 0.0 0.0 0.00 0.00 0.00 63 1021.2
20260831064305 55 157 0.0 0.0 0.00 0.00 0.00 62 1021.4
20260831063304 56 157 0.0 0.0 0.00 0.00 0.00 62 1021.4
20260831062306 56 157 0.0 0.0 0.00 0.00 0.00 62 1021.3
20260831061318 56 157 0.0 0.0 0.00 0.00 0.00 62 1021.4
20260831060404 55 157 0.0 0.0 0.00 0.00 0.00 63 1021.4
20260831055405 56 157 0.0 0.0 0.00 0.00 0.00 62 1021.5
20260831054405 56 157 0.0 0.0 0.00 0.00 0.00 61 1021.5
20260831052603 56 157 0.0 0.0 0.00 0.00 0.00 62 1021.6
20260831050702 56 157 0.0 0.0 0.00 0.00 0.00 61 1021.6
20260831044802 57 157 0.0 0.0 0.00 0.00 0.00 59 1021.8
20260831042918 57 157 0.0 0.0 0.00 0.00 0.00 59 1021.6
20260831041904 58 157 0.0 0.0 0.00 0.00 0.00 58 1021.7
20260831040905 58 157 0.0 0.0 0.00 0.00 0.00 57 1021.5
20260831035906 59 157 0.0 0.0 0.00 0.00 0.00 57 1021.4
20260831035004 59 157 0.0 0.0 0.00 0.00 0.00 57 1021.4
20260831033103 60 157 0.0 0.0 0.00 0.00 0.00 54 1021.4
20260831032104 61 157 0.0 0.0 0.00 0.00 0.00 54 1021.4
20260831031105 61 157 0.0 0.0 0.00 0.00 0.00 54 1021.4
20260831030118 62 157 0.0 0.0 0.00 0.00 0.00 52 1021.3
20260831030003 62 157 0.0 0.0 0.00 0.00 0.00 52 1021.2
20260831025004 63 157 0.0 0.0 0.00 0.00 0.00 51 1021.2
20260831024005 63 157 0.0 0.0 0.00 0.00 0.00 49 1021.3
20260831023005 64 157 0.0 0.0 0.00 0.00 0.00 49 1021.2
20260831022021 65 157 0.0 0.0 0.00 0.00 0.00 48 1021.2
20260831020104 66 157 0.0 0.0 0.00 0.00 0.00 46 1021.1
20260831015202 67 157 0.0 0.0 0.00 0.00 0.00 44 1021.3
20260831014204 68 157 0.0 0.0 0.00 0.00 0.00 44 1021.2
20260831013205 68 157 0.0 0.0 0.00 0.00 0.00 43 1021.2
20260831011303 69 157 0.0 1.7 0.00 0.00 0.00 40 1021.2
20260831010304 70 157 0.0 0.0 0.00 0.00 0.00 39 1021.1
20260831005306 70 135 1.7 2.6 0.00 0.00 0.00 39 1021.2
20260831004402 70 202 0.0 0.0 0.00 0.00 0.00 38 1021.2
20260831003403 71 225 1.7 3.5 0.00 0.00 0.00 37 1021.1
20260831002407 72 163 0.9 3.5 0.00 0.00 0.00 37 1021.1
20260831001503 72 225 0.0 0.9 0.00 0.00 0.00 37 1021.1
20260831000504 72 202 0.0 0.0 0.00 0.00 0.00 36 1021.1
20260830234505 72 157 0.0 0.0 0.00 0.00 0.00 36 1021.1
20260830233506 73 247 1.7 2.6 0.00 0.00 0.00 34 1021.1
20260830231605 74 157 0.9 2.6 0.00 0.00 0.00 35 1021.2
20260830230703 74 135 0.0 0.9 0.00 0.00 0.00 35 1021.3
20260830225802 74 174 0.9 0.9 0.00 0.00 0.00 35 1021.3
20260830224805 74 205 0.9 2.6 0.00 0.00 0.00 35 1021.3
20260830223806 74 176 0.0 2.6 0.00 0.00 0.00 36 1021.2
20260830222804 74 173 0.0 2.6 0.00 0.00 0.00 35 1021.4
20260830221903 74 295 0.0 0.9 0.00 0.00 0.00 35 1021.4
20260830220905 74 174 0.0 2.6 0.00 0.00 0.00 36 1021.4
20260830215003 74 173 0.9 2.6 0.00 0.00 0.00 36 1021.7
20260830214005 74 166 1.7 4.3 0.00 0.00 0.00 35 1021.7
20260830213018 75 234 2.6 6.1 0.00 0.00 0.00 35 1021.9
20260830212004 76 180 0.9 1.7 0.00 0.00 0.00 33 1021.9
20260830211018 76 281 0.9 2.6 0.00 0.00 0.00 29 1021.9
20260830210020 76 112 0.0 0.0 0.00 0.00 0.00 28 1022.1
20260830205105 77 223 2.6 4.3 0.00 0.00 0.00 27 1022.0
20260830204104 76 157 0.0 1.7 0.00 0.00 0.00 28 1021.9
20260830204005 76 157 0.0 0.9 0.00 0.00 0.00 27 1021.9
20260830203102 75 120 0.0 1.7 0.00 0.00 0.00 25 1021.9
20260830202105 75 161 0.9 3.5 0.00 0.00 0.00 26 1021.9
20260830201104 74 175 3.5 5.2 0.00 0.00 0.00 28 1022.1
20260830200103 74 140 2.6 5.2 0.00 0.00 0.00 30 1021.9
20260830195202 74 152 2.6 4.3 0.00 0.00 0.00 29 1022.1
20260830194203 74 146 1.7 3.5 0.00 0.00 0.00 30 1022.3
20260830193202 73 159 0.9 2.6 0.00 0.00 0.00 31 1022.3
20260830192205 73 225 1.7 3.5 0.00 0.00 0.00 32 1022.2
20260830191302 74 209 2.6 3.5 0.00 0.00 0.00 34 1022.3
20260830190302 73 290 0.9 3.5 0.00 0.00 0.00 35 1022.4
20260830185320 74 220 1.7 2.6 0.00 0.00 0.00 35 1022.5
20260830184402 74 162 2.6 3.5 0.00 0.00 0.00 34 1022.5
20260830183405 73 141 3.5 6.1 0.00 0.00 0.00 37 1022.7
20260830182424 73 225 1.7 1.7 0.00 0.00 0.00 37 1022.6
20260830181424 73 149 1.7 5.2 0.00 0.00 0.00 38 1022.7
20260830174424 69 157 0.9 2.6 0.00 0.00 0.00 43 1022.6
20260830173523 69 182 0.9 1.7 0.00 0.00 0.00 44 1022.7
20260830172524 69 150 2.6 3.5 0.00 0.00 0.00 43 1022.7
20260830171542 69 220 0.9 3.5 0.00 0.00 0.00 42 1022.5
20260830170524 69 225 0.9 3.5 0.00 0.00 0.00 43 1022.6
20260830165526 69 175 1.7 2.6 0.00 0.00 0.00 42 1022.4
20260830164623 70 156 2.6 4.3 0.00 0.00 0.00 43 1022.4
20260830163623 70 222 0.9 1.7 0.00 0.00 0.00 45 1022.3
20260830162625 68 157 0.0 0.9 0.00 0.00 0.00 47 1022.4
20260830161625 67 204 0.0 0.9 0.00 0.00 0.00 47 1022.6
20260830160625 66 174 2.6 3.5 0.00 0.00 0.00 48 1022.7
20260830155722 65 157 0.0 0.0 0.00 0.00 0.00 50 1022.6
20260830154723 62 161 0.9 1.7 0.00 0.00 0.00 52 1022.6
20260830153822 61 180 0.9 2.6 0.00 0.00 0.00 53 1022.8
20260830152825 60 45 0.0 0.0 0.00 0.00 0.00 54 1022.8
20260830151824 58 315 0.0 0.0 0.00 0.00 0.00 54 1022.7
20260830150922 56 315 0.0 0.0 0.00 0.00 0.00 54 1022.7
20260830145925 55 315 0.0 0.0 0.00 0.00 0.00 51 1022.7
20260830144924 55 315 0.0 0.0 0.00 0.00 0.00 51 1022.7
20260830143924 55 315 0.0 0.0 0.00 0.00 0.00 49 1022.6
20260830143022 54 315 0.0 0.9 0.00 0.00 0.00 47 1022.6
20260830142122 54 315 0.0 0.0 0.00 0.00 0.00 44 1022.6
20260830140125 54 315 0.0 0.0 0.00 0.00 0.00 42 1022.4
20260830135222 54 315 0.0 0.0 0.00 0.00 0.00 42 1022.2
20260830134322 54 315 0.0 0.0 0.00 0.00 0.00 41 1022.2
20260830133323 53 315 0.0 0.0 0.00 0.00 0.00 40 1022.0
20260830132324 53 315 0.0 0.0 0.00 0.00 0.00 41 1021.9
20260830131324 53 315 0.0 0.0 0.00 0.00 0.00 40 1021.8
20260830130324 54 315 0.0 0.0 0.00 0.00 0.00 38 1021.7
20260830125325 54 315 0.0 0.0 0.00 0.00 0.00 38 1021.8
20260830124325 54 315 0.0 0.0 0.00 0.00 0.00 38 1021.6
20260830123325 54 315 0.0 0.0 0.00 0.00 0.00 38 1021.5
20260830122423 54 315 0.0 0.0 0.00 0.00 0.00 37 1021.5
20260830120424 55 315 0.0 0.0 0.00 0.00 0.00 38 1021.6
20260830115424 56 315 0.0 0.0 0.00 0.00 0.00 35 1021.6
20260830114425 56 315 0.0 0.0 0.00 0.00 0.00 35 1021.7
20260830113423 56 315 0.0 0.0 0.00 0.00 0.00 34 1021.8
20260830111424 57 315 0.0 0.0 0.00 0.00 0.00 34 1021.8
20260830110423 57 315 0.0 0.9 0.00 0.00 0.00 32 1021.6
20260830105425 56 315 0.9 1.7 0.00 0.00 0.00 35 1021.6